RYR97CB LPPR-EDSB

Flight info

Callsign RYR97CB
Flight time 2h 17m
Altitude 38000
Route BELDU DCT CANAR DCT ADORO DCT FITSE DCT NUBLO DCT RONSI DCT DELOG DCT YURZI UL14 TEPRA UN867 MOKOR UN741 NTS DCT PIWIZ DCT RESMI/N0440F370 UN491 POGZI DCT GELTA DCT LUVAL/N0441F380 DCT EPL
Aircraft B38M/M-SADE3FGILRWY/SB1

Departure

Time 2026-05-01 11:54
Airport Francisco de Sá Carneiro Airport (LPPR)

Arrival

Time 2026-05-01 14:11
Airport Karlsruhe Baden-Baden Airport (EDSB)
Time Latitude Longitude Altitude Speed Heading
2026-05-01 11:28 41.23792 -8.67367 246 ft 0 kts 49°
2026-05-01 11:28 41.23791 -8.67368 246 ft 0 kts 49°
2026-05-01 11:45 41.23785 -8.67378 245 ft 4 kts 49°
2026-05-01 11:45 41.23767 -8.67404 244 ft 4 kts 49°
2026-05-01 11:45 41.23751 -8.67424 242 ft 4 kts 14°
2026-05-01 11:46 41.23733 -8.67415 242 ft 4 kts 311°
2026-05-01 11:46 41.23717 -8.67387 243 ft 4 kts 305°
2026-05-01 11:46 41.23714 -8.67381 243 ft 1 kts 306°
2026-05-01 11:49 41.23715 -8.67383 243 ft 2 kts 306°
2026-05-01 11:49 41.23728 -8.67407 242 ft 4 kts 306°
2026-05-01 11:49 41.23722 -8.67450 240 ft 6 kts 202°
2026-05-01 11:50 41.23675 -8.67439 240 ft 8 kts 178°
2026-05-01 11:50 41.23625 -8.67481 238 ft 10 kts 252°
2026-05-01 11:50 41.23617 -8.67587 237 ft 9 kts 255°
2026-05-01 11:50 41.23605 -8.67660 237 ft 0 kts 259°
2026-05-01 11:51 41.23604 -8.67664 238 ft 2 kts 259°
2026-05-01 11:51 41.23596 -8.67717 235 ft 11 kts 259°
2026-05-01 11:52 41.23625 -8.67813 235 ft 13 kts 342°
2026-05-01 11:52 41.23653 -8.67823 235 ft 0 kts 348°
2026-05-01 11:53 41.23691 -8.67833 234 ft 18 kts 349°
2026-05-01 11:53 41.24094 -8.67939 218 ft 98 kts 349°
2026-05-01 11:53 41.24990 -8.68172 204 ft 162 kts 347°
2026-05-01 11:54 41.26172 -8.68449 687 ft 177 kts 349°
2026-05-01 11:54 41.27407 -8.68780 1536 ft 181 kts 345°
2026-05-01 11:54 41.28696 -8.69168 2121 ft 207 kts 347°
2026-05-01 11:54 41.30196 -8.69571 2659 ft 227 kts 348°
2026-05-01 11:55 41.31797 -8.69972 3323 ft 247 kts 349°
2026-05-01 11:55 41.33496 -8.70403 4274 ft 254 kts 349°
2026-05-01 11:55 41.35295 -8.70871 5055 ft 271 kts 348°
2026-05-01 11:55 41.37158 -8.71373 6065 ft 275 kts 348°
2026-05-01 11:56 41.39061 -8.71784 7049 ft 280 kts 357°
2026-05-01 11:56 41.40998 -8.71292 7808 ft 289 kts 29°
2026-05-01 11:56 41.42464 -8.69528 8806 ft 288 kts 58°
2026-05-01 11:56 41.43228 -8.67043 9570 ft 295 kts 80°
2026-05-01 11:57 41.43639 -8.64339 10418 ft 301 kts 80°
2026-05-01 11:57 41.44074 -8.61527 10917 ft 320 kts 81°
2026-05-01 11:57 41.44209 -8.58533 11469 ft 328 kts 100°
2026-05-01 11:57 41.43906 -8.55479 12133 ft 337 kts 100°
2026-05-01 11:58 41.43609 -8.52362 12982 ft 340 kts 101°
2026-05-01 11:58 41.43299 -8.49224 13770 ft 345 kts 101°
2026-05-01 11:58 41.43232 -8.42777 15160 ft 361 kts 73°
2026-05-01 11:59 41.44513 -8.39870 15775 ft 371 kts 47°
2026-05-01 11:59 41.46544 -8.37726 16444 ft 375 kts 35°
2026-05-01 11:59 41.48649 -8.35620 17033 ft 381 kts 38°
2026-05-01 12:00 41.52857 -8.31236 18357 ft 387 kts 39°
2026-05-01 12:00 41.54986 -8.28985 18883 ft 392 kts 39°
2026-05-01 12:00 41.59288 -8.24420 19970 ft 398 kts 38°
2026-05-01 12:01 41.61463 -8.22105 20497 ft 401 kts 38°
2026-05-01 12:01 41.63655 -8.19772 21032 ft 405 kts 38°
2026-05-01 12:01 41.65867 -8.17415 21516 ft 409 kts 38°
2026-05-01 12:01 41.68097 -8.15036 22059 ft 411 kts 38°
2026-05-01 12:02 41.70335 -8.12646 22584 ft 414 kts 38°
2026-05-01 12:02 41.72598 -8.10227 23141 ft 417 kts 38°
2026-05-01 12:02 41.74876 -8.07792 23628 ft 421 kts 38°
2026-05-01 12:02 41.77169 -8.05334 24021 ft 425 kts 38°
2026-05-01 12:03 41.79486 -8.02847 24136 ft 427 kts 38°
2026-05-01 12:03 41.81802 -8.00366 24148 ft 425 kts 38°
2026-05-01 12:03 41.84109 -7.97890 24136 ft 425 kts 38°
2026-05-01 12:03 41.86419 -7.95410 24146 ft 425 kts 38°
2026-05-01 12:04 41.88726 -7.92930 24141 ft 425 kts 38°
2026-05-01 12:04 41.91000 -7.90482 24136 ft 425 kts 38°
2026-05-01 12:04 41.93307 -7.87997 24154 ft 425 kts 39°
2026-05-01 12:04 41.95610 -7.85513 24146 ft 424 kts 39°
2026-05-01 12:05 41.97907 -7.83034 24138 ft 424 kts 39°
2026-05-01 12:05 42.02505 -7.78065 24141 ft 424 kts 39°
2026-05-01 12:05 42.04804 -7.75577 24142 ft 424 kts 39°
2026-05-01 12:06 42.07099 -7.73091 24142 ft 424 kts 39°
2026-05-01 12:06 42.09398 -7.70598 24143 ft 424 kts 39°
2026-05-01 12:06 42.11695 -7.68104 24140 ft 424 kts 39°
2026-05-01 12:06 42.13992 -7.65609 24140 ft 424 kts 39°
2026-05-01 12:07 42.16284 -7.63115 24153 ft 424 kts 39°
2026-05-01 12:07 42.18579 -7.60618 24139 ft 424 kts 39°
2026-05-01 12:07 42.20866 -7.58126 24127 ft 423 kts 39°
2026-05-01 12:07 42.23153 -7.55631 24132 ft 423 kts 39°
2026-05-01 12:08 42.25444 -7.53130 24138 ft 423 kts 39°
2026-05-01 12:08 42.27728 -7.50634 24132 ft 423 kts 39°
2026-05-01 12:08 42.30013 -7.48135 24135 ft 423 kts 39°
2026-05-01 12:08 42.32296 -7.45636 24139 ft 423 kts 39°
2026-05-01 12:09 42.34580 -7.43133 24135 ft 423 kts 39°
2026-05-01 12:09 42.36861 -7.40630 24135 ft 423 kts 39°
2026-05-01 12:09 42.39144 -7.38123 24148 ft 423 kts 39°
2026-05-01 12:09 42.41423 -7.35618 24138 ft 423 kts 39°
2026-05-01 12:10 42.43707 -7.33106 24132 ft 423 kts 39°
2026-05-01 12:10 42.48269 -7.28079 24133 ft 423 kts 39°
2026-05-01 12:10 42.50549 -7.25564 24129 ft 423 kts 39°
2026-05-01 12:11 42.55075 -7.20561 24120 ft 422 kts 39°
2026-05-01 12:11 42.57343 -7.18051 24138 ft 421 kts 39°
2026-05-01 12:11 42.59612 -7.15539 24125 ft 420 kts 39°
2026-05-01 12:12 42.61875 -7.13030 24123 ft 420 kts 39°
2026-05-01 12:12 42.64140 -7.10517 24132 ft 420 kts 39°
2026-05-01 12:12 42.66401 -7.08004 24109 ft 420 kts 39°
2026-05-01 12:12 42.68664 -7.05488 24129 ft 420 kts 39°
2026-05-01 12:13 42.70928 -7.02968 24134 ft 421 kts 39°
2026-05-01 12:13 42.73191 -7.00446 24123 ft 420 kts 39°
2026-05-01 12:13 42.75456 -6.97921 24122 ft 420 kts 39°
2026-05-01 12:13 42.77717 -6.95397 24141 ft 421 kts 39°
2026-05-01 12:14 42.79980 -6.92869 24125 ft 421 kts 39°
2026-05-01 12:14 42.82240 -6.90339 24125 ft 420 kts 39°
2026-05-01 12:14 42.84497 -6.87812 24128 ft 420 kts 39°
2026-05-01 12:14 42.86757 -6.85280 24130 ft 420 kts 39°
2026-05-01 12:15 42.89015 -6.82746 24124 ft 420 kts 40°
2026-05-01 12:15 42.91269 -6.80217 24120 ft 420 kts 39°
2026-05-01 12:15 42.93519 -6.77689 24117 ft 419 kts 39°
2026-05-01 12:15 42.95769 -6.75156 24128 ft 419 kts 40°
2026-05-01 12:16 42.98022 -6.72619 24123 ft 420 kts 40°
2026-05-01 12:16 42.99513 -6.70938 24121 ft 420 kts 40°
2026-05-01 12:16 43.01764 -6.68399 24129 ft 419 kts 39°
2026-05-01 12:16 43.04016 -6.65856 24121 ft 420 kts 40°
2026-05-01 12:17 43.06264 -6.63316 24121 ft 419 kts 40°
2026-05-01 12:17 43.08511 -6.60774 24119 ft 420 kts 40°
2026-05-01 12:17 43.10759 -6.58229 24117 ft 420 kts 40°
2026-05-01 12:17 43.13011 -6.55675 24130 ft 420 kts 40°
2026-05-01 12:18 43.15258 -6.53126 24107 ft 420 kts 40°
2026-05-01 12:18 43.17504 -6.50574 24143 ft 420 kts 40°
2026-05-01 12:18 43.19752 -6.48018 24125 ft 419 kts 40°
2026-05-01 12:18 43.21996 -6.45465 24117 ft 420 kts 40°
2026-05-01 12:19 43.24240 -6.42909 24130 ft 420 kts 40°
2026-05-01 12:19 43.26485 -6.40348 24131 ft 420 kts 40°
2026-05-01 12:19 43.28733 -6.37782 24129 ft 420 kts 40°
2026-05-01 12:19 43.30978 -6.35217 24138 ft 420 kts 40°
2026-05-01 12:20 43.33220 -6.32653 24140 ft 419 kts 41°
2026-05-01 12:20 43.35463 -6.30085 24145 ft 419 kts 41°
2026-05-01 12:20 43.37701 -6.27520 24136 ft 419 kts 41°
2026-05-01 12:20 43.39941 -6.24952 24140 ft 419 kts 41°
2026-05-01 12:21 43.42179 -6.22381 24154 ft 419 kts 41°
2026-05-01 12:21 43.44389 -6.19840 24153 ft 419 kts 41°
2026-05-01 12:21 43.46626 -6.17267 24153 ft 419 kts 41°
2026-05-01 12:21 43.48863 -6.14690 24160 ft 420 kts 41°
2026-05-01 12:22 43.51104 -6.12107 24166 ft 420 kts 41°
2026-05-01 12:22 43.53342 -6.09525 24151 ft 420 kts 41°
2026-05-01 12:22 43.55572 -6.06946 24152 ft 418 kts 41°
2026-05-01 12:22 43.57803 -6.04367 24153 ft 417 kts 41°
2026-05-01 12:23 43.60026 -6.01795 24140 ft 417 kts 41°
2026-05-01 12:23 43.62246 -5.99223 24143 ft 417 kts 41°
2026-05-01 12:23 43.64471 -5.96643 24143 ft 417 kts 41°
2026-05-01 12:23 43.66690 -5.94066 24143 ft 417 kts 41°
2026-05-01 12:24 43.68911 -5.91484 24162 ft 417 kts 41°
2026-05-01 12:24 43.71134 -5.88898 24154 ft 417 kts 41°
2026-05-01 12:24 43.73355 -5.86313 24152 ft 418 kts 41°
2026-05-01 12:24 43.75576 -5.83724 24151 ft 418 kts 41°
2026-05-01 12:25 43.77797 -5.81132 24151 ft 418 kts 41°
2026-05-01 12:25 43.82235 -5.75946 24154 ft 418 kts 41°
2026-05-01 12:25 43.84453 -5.73350 24154 ft 417 kts 41°
2026-05-01 12:26 43.86668 -5.70755 24150 ft 417 kts 41°
2026-05-01 12:26 43.91091 -5.65566 24162 ft 416 kts 41°
2026-05-01 12:26 43.93300 -5.62970 24163 ft 416 kts 41°
2026-05-01 12:27 43.95510 -5.60371 24166 ft 416 kts 42°
2026-05-01 12:27 43.99923 -5.55172 24163 ft 416 kts 42°
2026-05-01 12:28 44.04338 -5.49960 24162 ft 416 kts 42°
2026-05-01 12:28 44.06546 -5.47350 24165 ft 416 kts 42°
2026-05-01 12:28 44.10955 -5.42129 24166 ft 416 kts 42°
2026-05-01 12:29 44.13157 -5.39518 24165 ft 416 kts 42°
2026-05-01 12:29 44.15359 -5.36904 24165 ft 416 kts 42°
2026-05-01 12:29 44.19756 -5.31677 24157 ft 415 kts 41°
2026-05-01 12:30 44.24113 -5.26486 24168 ft 415 kts 41°
2026-05-01 12:30 44.26302 -5.23875 24172 ft 415 kts 41°
2026-05-01 12:30 44.28493 -5.21258 24173 ft 415 kts 41°
2026-05-01 12:31 44.30684 -5.18639 24182 ft 414 kts 42°
2026-05-01 12:31 44.32874 -5.16018 24174 ft 414 kts 42°
2026-05-01 12:31 44.35062 -5.13397 24174 ft 414 kts 42°
2026-05-01 12:31 44.37249 -5.10775 24174 ft 414 kts 42°
2026-05-01 12:32 44.39433 -5.08153 24173 ft 414 kts 42°
2026-05-01 12:32 44.43807 -5.02895 24173 ft 414 kts 42°
2026-05-01 12:32 44.45991 -5.00265 24173 ft 414 kts 42°
2026-05-01 12:33 44.48173 -4.97635 24173 ft 414 kts 42°
2026-05-01 12:33 44.50357 -4.95000 24165 ft 414 kts 42°
2026-05-01 12:33 44.52535 -4.92368 24176 ft 414 kts 42°
2026-05-01 12:33 44.54716 -4.89732 24178 ft 414 kts 42°
2026-05-01 12:34 44.56894 -4.87095 24178 ft 414 kts 42°
2026-05-01 12:34 44.59069 -4.84461 24183 ft 413 kts 42°
2026-05-01 12:34 44.61246 -4.81821 24184 ft 413 kts 42°
2026-05-01 12:34 44.63419 -4.79183 24183 ft 413 kts 42°
2026-05-01 12:35 44.65593 -4.76541 24187 ft 413 kts 42°
2026-05-01 12:35 44.67768 -4.73895 24185 ft 413 kts 42°
2026-05-01 12:35 44.69939 -4.71251 24184 ft 413 kts 42°
2026-05-01 12:35 44.72113 -4.68601 24184 ft 413 kts 42°
2026-05-01 12:36 44.74283 -4.65953 24184 ft 413 kts 42°
2026-05-01 12:36 44.76457 -4.63298 24187 ft 413 kts 42°
2026-05-01 12:36 44.78625 -4.60646 24186 ft 413 kts 42°
2026-05-01 12:36 44.80797 -4.57988 24187 ft 413 kts 42°
2026-05-01 12:37 44.82962 -4.55334 24182 ft 413 kts 42°
2026-05-01 12:37 44.85099 -4.52714 24185 ft 412 kts 42°
2026-05-01 12:37 44.87257 -4.50063 24185 ft 412 kts 42°
2026-05-01 12:37 44.89419 -4.47407 24187 ft 412 kts 42°
2026-05-01 12:38 44.91578 -4.44750 24189 ft 412 kts 42°
2026-05-01 12:38 44.93739 -4.42089 24189 ft 412 kts 42°
2026-05-01 12:38 44.95895 -4.39430 24189 ft 412 kts 42°
2026-05-01 12:38 44.98053 -4.36766 24190 ft 412 kts 42°
2026-05-01 12:39 45.00215 -4.34096 24195 ft 412 kts 42°
2026-05-01 12:39 45.02372 -4.31427 24193 ft 412 kts 42°
2026-05-01 12:39 45.04531 -4.28754 24193 ft 412 kts 42°
2026-05-01 12:39 45.06684 -4.26086 24193 ft 412 kts 42°
2026-05-01 12:40 45.08841 -4.23410 24194 ft 412 kts 42°
2026-05-01 12:40 45.10997 -4.20732 24195 ft 412 kts 42°
2026-05-01 12:40 45.13152 -4.18053 24196 ft 412 kts 42°
2026-05-01 12:40 45.15305 -4.15373 24195 ft 412 kts 42°
2026-05-01 12:41 45.17459 -4.12689 24198 ft 412 kts 43°
2026-05-01 12:41 45.19615 -4.10000 24198 ft 412 kts 43°
2026-05-01 12:41 45.21770 -4.07310 24198 ft 413 kts 43°
2026-05-01 12:41 45.23921 -4.04621 24198 ft 413 kts 43°
2026-05-01 12:42 45.26074 -4.01928 24200 ft 413 kts 43°
2026-05-01 12:42 45.28224 -3.99235 24199 ft 413 kts 43°
2026-05-01 12:42 45.30377 -3.96535 24198 ft 413 kts 43°
2026-05-01 12:42 45.32527 -3.93837 24203 ft 413 kts 43°
2026-05-01 12:43 45.34677 -3.91135 24203 ft 413 kts 43°
2026-05-01 12:43 45.36828 -3.88430 24203 ft 413 kts 43°
2026-05-01 12:43 45.38978 -3.85725 24189 ft 412 kts 42°
2026-05-01 12:43 45.41124 -3.83018 24201 ft 412 kts 42°
2026-05-01 12:44 45.43266 -3.80316 24201 ft 412 kts 42°
2026-05-01 12:44 45.45406 -3.77612 24201 ft 412 kts 42°
2026-05-01 12:44 45.49688 -3.72195 24209 ft 412 kts 42°
2026-05-01 12:45 45.53937 -3.66809 24208 ft 411 kts 42°
2026-05-01 12:45 45.56077 -3.64091 24208 ft 411 kts 42°
2026-05-01 12:45 45.58213 -3.61376 24208 ft 411 kts 42°
2026-05-01 12:46 45.60348 -3.58660 24211 ft 411 kts 43°
2026-05-01 12:46 45.62481 -3.55943 24209 ft 411 kts 43°
2026-05-01 12:46 45.64616 -3.53220 24211 ft 411 kts 43°
2026-05-01 12:46 45.66747 -3.50500 24203 ft 411 kts 43°
2026-05-01 12:47 45.68874 -3.47781 24209 ft 410 kts 43°
2026-05-01 12:47 45.71004 -3.45056 24211 ft 410 kts 43°
2026-05-01 12:47 45.73129 -3.42335 24214 ft 410 kts 43°
2026-05-01 12:47 45.75254 -3.39610 24213 ft 410 kts 43°
2026-05-01 12:48 45.77381 -3.36881 24214 ft 410 kts 43°
2026-05-01 12:48 45.79508 -3.34149 24214 ft 410 kts 43°
2026-05-01 12:48 45.81634 -3.31414 24215 ft 410 kts 43°
2026-05-01 12:48 45.83755 -3.28684 24220 ft 410 kts 43°
2026-05-01 12:49 45.85880 -3.25945 24222 ft 410 kts 43°
2026-05-01 12:49 45.88000 -3.23209 24221 ft 410 kts 43°
2026-05-01 12:49 45.90126 -3.20464 24222 ft 410 kts 43°
2026-05-01 12:49 45.92247 -3.17721 24222 ft 410 kts 43°
2026-05-01 12:50 45.94368 -3.14975 24217 ft 410 kts 43°
2026-05-01 12:50 45.96482 -3.12235 24220 ft 410 kts 43°
2026-05-01 12:50 45.98597 -3.09493 24223 ft 409 kts 43°
2026-05-01 12:50 46.00712 -3.06746 24225 ft 409 kts 43°
2026-05-01 12:51 46.02826 -3.03998 24219 ft 409 kts 43°
2026-05-01 12:51 46.04935 -3.01252 24224 ft 409 kts 43°
2026-05-01 12:51 46.09158 -2.95749 24224 ft 409 kts 43°
2026-05-01 12:52 46.11266 -2.92996 24223 ft 409 kts 43°
2026-05-01 12:52 46.15485 -2.87478 24228 ft 409 kts 43°
2026-05-01 12:52 46.17592 -2.84720 24225 ft 409 kts 43°
2026-05-01 12:53 46.21779 -2.79226 24231 ft 409 kts 43°
2026-05-01 12:53 46.23882 -2.76463 24228 ft 408 kts 43°
2026-05-01 12:53 46.25981 -2.73702 24228 ft 408 kts 43°
2026-05-01 12:54 46.28078 -2.70940 24226 ft 408 kts 43°
2026-05-01 12:54 46.32271 -2.65409 24231 ft 408 kts 43°
2026-05-01 12:54 46.34364 -2.62643 24234 ft 408 kts 43°
2026-05-01 12:55 46.38552 -2.57101 24230 ft 408 kts 43°
2026-05-01 12:55 46.40644 -2.54328 24230 ft 408 kts 43°
2026-05-01 12:55 46.42739 -2.51548 24231 ft 408 kts 43°
2026-05-01 12:56 46.44830 -2.48770 24230 ft 408 kts 43°
2026-05-01 12:56 46.46924 -2.45986 24228 ft 408 kts 43°
2026-05-01 12:56 46.49019 -2.43216 24226 ft 408 kts 41°
2026-05-01 12:56 46.51393 -2.40984 24228 ft 407 kts 27°
2026-05-01 12:57 46.53874 -2.39001 24207 ft 407 kts 29°
2026-05-01 12:57 46.58786 -2.34942 24219 ft 406 kts 30°
2026-05-01 12:57 46.61209 -2.32931 24220 ft 406 kts 30°
2026-05-01 12:58 46.63691 -2.30868 24219 ft 406 kts 30°
2026-05-01 12:58 46.66113 -2.28853 24219 ft 406 kts 30°
2026-05-01 12:58 46.68595 -2.26785 24215 ft 406 kts 30°
2026-05-01 12:59 46.73464 -2.22723 24211 ft 406 kts 30°
2026-05-01 12:59 46.75915 -2.20675 24211 ft 406 kts 30°
2026-05-01 12:59 46.80818 -2.16572 24210 ft 406 kts 30°
2026-05-01 13:00 46.85716 -2.12464 24212 ft 406 kts 30°
2026-05-01 13:00 46.88166 -2.10407 24224 ft 406 kts 30°
2026-05-01 13:01 46.93213 -2.06706 24218 ft 406 kts 26°
2026-05-01 13:01 46.95752 -2.04893 24202 ft 406 kts 26°
2026-05-01 13:01 47.00495 -2.00563 24189 ft 402 kts 47°
2026-05-01 13:02 47.02126 -1.97250 24218 ft 402 kts 59°
2026-05-01 13:07 47.31784 -1.22697 24195 ft 402 kts 59°
2026-05-01 13:07 47.33208 -1.19156 24191 ft 401 kts 59°
2026-05-01 13:07 47.34631 -1.15615 24189 ft 401 kts 59°
2026-05-01 13:08 47.36054 -1.12069 24180 ft 401 kts 59°
2026-05-01 13:08 47.37474 -1.08528 24185 ft 401 kts 59°
2026-05-01 13:08 47.38891 -1.04985 24189 ft 401 kts 60°
2026-05-01 13:08 47.39829 -1.02640 24190 ft 400 kts 60°
2026-05-01 13:09 47.41241 -0.99106 24185 ft 400 kts 60°
2026-05-01 13:09 47.42653 -0.95565 24184 ft 400 kts 60°
2026-05-01 13:09 47.44062 -0.92028 24184 ft 400 kts 60°
2026-05-01 13:09 47.45469 -0.88491 24183 ft 400 kts 60°
2026-05-01 13:10 47.46877 -0.84948 24184 ft 400 kts 60°
2026-05-01 13:10 47.48284 -0.81399 24193 ft 400 kts 60°
2026-05-01 13:10 47.49688 -0.77858 24190 ft 398 kts 60°
2026-05-01 13:10 47.51087 -0.74323 24189 ft 399 kts 60°
2026-05-01 13:11 47.52487 -0.70781 24194 ft 398 kts 60°
2026-05-01 13:11 47.53883 -0.67242 24195 ft 399 kts 60°
2026-05-01 13:11 47.55281 -0.63697 24208 ft 399 kts 60°
2026-05-01 13:11 47.56676 -0.60154 24210 ft 398 kts 60°
2026-05-01 13:12 47.58071 -0.56604 24387 ft 401 kts 60°
2026-05-01 13:12 47.59474 -0.53033 24900 ft 401 kts 60°
2026-05-01 13:12 47.60882 -0.49441 25327 ft 405 kts 60°
2026-05-01 13:12 47.62300 -0.45820 25794 ft 407 kts 60°
2026-05-01 13:13 47.63730 -0.42164 26177 ft 412 kts 60°
2026-05-01 13:13 47.65167 -0.38485 26643 ft 414 kts 59°
2026-05-01 13:13 47.66612 -0.34776 27056 ft 417 kts 59°
2026-05-01 13:13 47.68069 -0.31036 27485 ft 420 kts 59°
2026-05-01 13:14 47.69534 -0.27271 27920 ft 423 kts 59°
2026-05-01 13:14 47.71009 -0.23471 28315 ft 427 kts 59°
2026-05-01 13:14 47.72496 -0.19636 28695 ft 430 kts 59°
2026-05-01 13:14 47.73990 -0.15780 29073 ft 433 kts 59°
2026-05-01 13:15 47.75496 -0.11884 29442 ft 436 kts 59°
2026-05-01 13:15 47.77008 -0.07968 29807 ft 439 kts 58°
2026-05-01 13:15 47.78531 -0.04017 30168 ft 442 kts 58°
2026-05-01 13:15 47.80064 -0.00032 30493 ft 445 kts 59°
2026-05-01 13:16 47.81595 0.03950 30952 ft 443 kts 59°
2026-05-01 13:16 47.83124 0.07932 31337 ft 444 kts 59°
2026-05-01 13:16 47.84658 0.11935 31585 ft 447 kts 59°
2026-05-01 13:17 47.89307 0.24102 32514 ft 454 kts 59°
2026-05-01 13:17 47.90851 0.28155 32795 ft 457 kts 59°
2026-05-01 13:18 47.94000 0.36441 33386 ft 462 kts 59°
2026-05-01 13:18 47.95588 0.40630 33668 ft 465 kts 59°
2026-05-01 13:18 47.97181 0.44837 33994 ft 466 kts 59°
2026-05-01 13:18 47.98775 0.49053 34359 ft 466 kts 59°
2026-05-01 13:19 48.00367 0.53274 34692 ft 466 kts 60°
2026-05-01 13:19 48.01955 0.57488 35022 ft 466 kts 60°
2026-05-01 13:19 48.05112 0.65888 35720 ft 463 kts 60°
2026-05-01 13:20 48.06685 0.70083 36018 ft 462 kts 61°
2026-05-01 13:20 48.08254 0.74274 36325 ft 462 kts 61°
2026-05-01 13:20 48.09825 0.78476 36612 ft 462 kts 61°
2026-05-01 13:21 48.12956 0.86868 37167 ft 461 kts 61°
2026-05-01 13:21 48.14515 0.91054 37420 ft 461 kts 62°
2026-05-01 13:21 48.16077 0.95255 37695 ft 460 kts 61°
2026-05-01 13:21 48.17634 0.99448 37929 ft 461 kts 61°
2026-05-01 13:22 48.19189 1.03643 38165 ft 460 kts 62°
2026-05-01 13:22 48.20743 1.07844 38233 ft 462 kts 62°
2026-05-01 13:22 48.23569 1.16427 38231 ft 458 kts 64°
2026-05-01 13:23 48.26380 1.24985 38202 ft 457 kts 64°
2026-05-01 13:23 48.29137 1.33575 38197 ft 455 kts 71°
2026-05-01 13:24 48.29918 1.38134 38186 ft 450 kts 86°
2026-05-01 13:24 48.29970 1.42746 38223 ft 448 kts 94°
2026-05-01 13:25 48.30183 1.56853 38199 ft 451 kts 89°
2026-05-01 13:25 48.30394 1.66255 38205 ft 451 kts 90°
2026-05-01 13:26 48.30599 1.75664 38204 ft 450 kts 90°
2026-05-01 13:26 48.30796 1.85037 38208 ft 449 kts 90°
2026-05-01 13:27 48.30985 1.94412 38208 ft 449 kts 90°
2026-05-01 13:27 48.31255 2.08476 38220 ft 449 kts 90°
2026-05-01 13:28 48.31507 2.22542 38208 ft 448 kts 90°
2026-05-01 13:29 48.31817 2.41254 38221 ft 448 kts 91°
2026-05-01 13:31 48.32224 2.69304 38213 ft 447 kts 91°
2026-05-01 13:32 48.32510 2.92650 38209 ft 447 kts 91°
2026-05-01 13:33 48.32748 3.15892 38210 ft 446 kts 91°
2026-05-01 13:34 48.32906 3.34527 38208 ft 446 kts 91°
2026-05-01 13:35 48.33004 3.48502 38205 ft 445 kts 91°
2026-05-01 13:36 48.33085 3.62459 38213 ft 445 kts 92°
2026-05-01 13:36 48.33149 3.76414 38211 ft 445 kts 92°
2026-05-01 13:37 48.33183 3.85716 38215 ft 445 kts 92°
2026-05-01 13:37 48.33209 3.95017 38215 ft 445 kts 92°
2026-05-01 13:38 48.33233 4.08982 38211 ft 445 kts 92°
2026-05-01 13:39 48.33241 4.18286 38210 ft 445 kts 92°
2026-05-01 13:39 48.33240 4.27588 38213 ft 445 kts 92°
2026-05-01 13:40 48.33232 4.36874 38216 ft 444 kts 92°
2026-05-01 13:40 48.33217 4.46150 38220 ft 444 kts 92°
2026-05-01 13:41 48.33195 4.55420 38219 ft 444 kts 92°
2026-05-01 13:41 48.33164 4.64604 37973 ft 436 kts 92°
2026-05-01 13:41 48.33146 4.69184 37382 ft 433 kts 93°
2026-05-01 13:42 48.33127 4.73706 36820 ft 431 kts 93°
2026-05-01 13:42 48.33107 4.78183 36333 ft 427 kts 93°
2026-05-01 13:42 48.33084 4.82613 35868 ft 423 kts 93°
2026-05-01 13:42 48.33060 4.87015 35383 ft 420 kts 94°
2026-05-01 13:43 48.33035 4.91396 34887 ft 417 kts 94°
2026-05-01 13:43 48.33009 4.95677 34412 ft 415 kts 94°
2026-05-01 13:43 48.32981 4.99998 33888 ft 412 kts 94°
2026-05-01 13:43 48.32952 5.04296 33362 ft 410 kts 94°
2026-05-01 13:44 48.32921 5.08550 32902 ft 406 kts 94°
2026-05-01 13:44 48.32889 5.12777 32444 ft 403 kts 94°
2026-05-01 13:44 48.32855 5.16969 31979 ft 399 kts 93°
2026-05-01 13:44 48.32820 5.21129 31533 ft 396 kts 93°
2026-05-01 13:45 48.32784 5.25249 31096 ft 393 kts 93°
2026-05-01 13:45 48.32747 5.29341 30668 ft 391 kts 93°
2026-05-01 13:45 48.32708 5.33414 30239 ft 388 kts 92°
2026-05-01 13:45 48.32669 5.37456 29737 ft 386 kts 92°
2026-05-01 13:46 48.32628 5.41461 29305 ft 382 kts 93°
2026-05-01 13:46 48.32586 5.45435 28891 ft 378 kts 93°
2026-05-01 13:46 48.32544 5.49355 28503 ft 374 kts 93°
2026-05-01 13:46 48.32500 5.53250 28093 ft 371 kts 93°
2026-05-01 13:47 48.32456 5.57108 27710 ft 368 kts 93°
2026-05-01 13:47 48.32411 5.60928 27308 ft 365 kts 92°
2026-05-01 13:47 48.32365 5.64723 26935 ft 362 kts 92°
2026-05-01 13:47 48.32318 5.68483 26566 ft 359 kts 92°
2026-05-01 13:48 48.32270 5.72222 26193 ft 357 kts 92°
2026-05-01 13:48 48.32221 5.75932 25825 ft 354 kts 92°
2026-05-01 13:48 48.32171 5.79624 25460 ft 352 kts 92°
2026-05-01 13:48 48.32121 5.83289 25100 ft 350 kts 92°
2026-05-01 13:49 48.32069 5.86938 24740 ft 348 kts 92°
2026-05-01 13:49 48.32017 5.90564 24382 ft 347 kts 92°
2026-05-01 13:49 48.31964 5.94172 24027 ft 345 kts 92°
2026-05-01 13:49 48.31910 5.97769 23644 ft 343 kts 92°
2026-05-01 13:50 48.31856 6.01344 23231 ft 341 kts 92°
2026-05-01 13:50 48.31809 6.04894 22863 ft 339 kts 89°
2026-05-01 13:50 48.32188 6.08381 22410 ft 339 kts 75°
2026-05-01 13:50 48.32778 6.11784 22117 ft 334 kts 77°
2026-05-01 13:51 48.33325 6.15160 21815 ft 331 kts 77°
2026-05-01 13:51 48.33859 6.18500 21479 ft 328 kts 77°
2026-05-01 13:51 48.34385 6.21816 21153 ft 325 kts 78°
2026-05-01 13:51 48.34906 6.25110 20823 ft 322 kts 78°
2026-05-01 13:52 48.35420 6.28373 20504 ft 320 kts 78°
2026-05-01 13:52 48.35931 6.31619 20172 ft 318 kts 78°
2026-05-01 13:52 48.36436 6.34838 19854 ft 316 kts 78°
2026-05-01 13:52 48.36939 6.38047 19533 ft 314 kts 78°
2026-05-01 13:53 48.37436 6.41230 19221 ft 312 kts 78°
2026-05-01 13:53 48.38415 6.47507 18589 ft 309 kts 78°
2026-05-01 13:53 48.38902 6.50643 18238 ft 307 kts 78°
2026-05-01 13:54 48.39386 6.53763 17902 ft 305 kts 78°
2026-05-01 13:54 48.39865 6.56858 17581 ft 302 kts 78°
2026-05-01 13:54 48.40339 6.59930 17267 ft 302 kts 78°
2026-05-01 13:54 48.40818 6.63030 16950 ft 307 kts 78°
2026-05-01 13:55 48.41301 6.66174 16634 ft 310 kts 78°
2026-05-01 13:55 48.41787 6.69339 16314 ft 310 kts 78°
2026-05-01 13:55 48.42270 6.72487 16001 ft 307 kts 79°
2026-05-01 13:55 48.42748 6.75618 15680 ft 305 kts 79°
2026-05-01 13:56 48.43222 6.78720 15369 ft 303 kts 79°
2026-05-01 13:56 48.43692 6.81803 15048 ft 301 kts 79°
2026-05-01 13:56 48.44158 6.84869 14735 ft 300 kts 79°
2026-05-01 13:56 48.44621 6.87915 14430 ft 298 kts 79°
2026-05-01 13:57 48.45080 6.90946 14123 ft 296 kts 79°
2026-05-01 13:57 48.45383 6.92945 13900 ft 294 kts 80°
2026-05-01 13:57 48.45987 6.96954 13466 ft 293 kts 79°
2026-05-01 13:57 48.46437 6.99937 13135 ft 291 kts 79°
2026-05-01 13:58 48.46733 7.01901 12932 ft 289 kts 81°
2026-05-01 13:58 48.47175 7.04839 12626 ft 286 kts 80°
2026-05-01 13:58 48.47611 7.07748 12340 ft 284 kts 79°
2026-05-01 13:58 48.48030 7.10552 12058 ft 282 kts 81°
2026-05-01 13:59 48.48429 7.13228 11788 ft 281 kts 79°
2026-05-01 13:59 48.48716 7.15159 11569 ft 280 kts 81°
2026-05-01 13:59 48.48992 7.17006 11388 ft 278 kts 80°
2026-05-01 13:59 48.49415 7.19848 11106 ft 276 kts 81°
2026-05-01 14:00 48.49833 7.22661 10814 ft 275 kts 80°
2026-05-01 14:00 48.50248 7.25466 10530 ft 273 kts 79°
2026-05-01 14:00 48.50659 7.28243 10318 ft 269 kts 79°
2026-05-01 14:00 48.51065 7.30989 10000 ft 268 kts 80°
2026-05-01 14:01 48.51471 7.33743 9563 ft 271 kts 80°
2026-05-01 14:01 48.51880 7.36519 9188 ft 271 kts 82°
2026-05-01 14:01 48.52288 7.39294 8888 ft 271 kts 79°
2026-05-01 14:01 48.52692 7.42059 8592 ft 269 kts 80°
2026-05-01 14:02 48.53093 7.44802 8296 ft 267 kts 79°
2026-05-01 14:02 48.53490 7.47522 8034 ft 265 kts 80°
2026-05-01 14:02 48.53886 7.50236 7734 ft 264 kts 80°
2026-05-01 14:02 48.54278 7.52933 7458 ft 263 kts 80°
2026-05-01 14:03 48.54665 7.55590 7187 ft 262 kts 80°
2026-05-01 14:03 48.55054 7.58272 6901 ft 262 kts 80°
2026-05-01 14:03 48.55443 7.60955 6608 ft 261 kts 80°
2026-05-01 14:03 48.55828 7.63618 6330 ft 259 kts 80°
2026-05-01 14:04 48.56213 7.66283 6035 ft 260 kts 80°
2026-05-01 14:04 48.56596 7.68946 5724 ft 260 kts 80°
2026-05-01 14:04 48.56979 7.71611 5418 ft 259 kts 80°
2026-05-01 14:04 48.57356 7.74234 5280 ft 252 kts 80°
2026-05-01 14:05 48.57721 7.76775 5190 ft 243 kts 80°
2026-05-01 14:05 48.58075 7.79239 5031 ft 237 kts 80°
2026-05-01 14:05 48.58427 7.81654 4834 ft 235 kts 80°
2026-05-01 14:05 48.58768 7.84017 4769 ft 225 kts 79°
2026-05-01 14:06 48.59099 7.86284 4659 ft 216 kts 79°
2026-05-01 14:06 48.59410 7.88471 4530 ft 211 kts 79°
2026-05-01 14:06 48.59789 7.90615 4247 ft 214 kts 66°
2026-05-01 14:06 48.60731 7.92301 4033 ft 210 kts 36°
2026-05-01 14:07 48.62024 7.93290 3779 ft 204 kts 27°
2026-05-01 14:07 48.63250 7.94266 3617 ft 198 kts 33°
2026-05-01 14:07 48.64425 7.95341 3355 ft 197 kts 34°
2026-05-01 14:08 48.66725 7.97512 2843 ft 193 kts 34°
2026-05-01 14:08 48.67866 7.98596 2566 ft 193 kts 33°
2026-05-01 14:08 48.68988 7.99641 2279 ft 182 kts 31°
2026-05-01 14:08 48.70003 8.00601 2051 ft 162 kts 31°
2026-05-01 14:09 48.70926 8.01473 1812 ft 150 kts 31°
2026-05-01 14:09 48.71777 8.02280 1594 ft 141 kts 30°
2026-05-01 14:09 48.72608 8.03056 1407 ft 140 kts 31°
2026-05-01 14:09 48.73435 8.03834 1250 ft 141 kts 31°
2026-05-01 14:10 48.74273 8.04603 1038 ft 143 kts 30°
2026-05-01 14:10 48.75129 8.05407 879 ft 145 kts 31°
2026-05-01 14:10 48.75981 8.06215 655 ft 143 kts 27°
2026-05-01 14:10 48.76816 8.07004 487 ft 140 kts 28°
2026-05-01 14:11 48.77599 8.07738 416 ft 121 kts 28°
2026-05-01 14:11 48.78565 8.08641 412 ft 62 kts 31°
2026-05-01 14:11 48.78854 8.08914 417 ft 25 kts 32°
2026-05-01 14:12 48.78969 8.09021 415 ft 21 kts 31°
2026-05-01 14:12 48.79060 8.09126 410 ft 12 kts 75°
2026-05-01 14:12 48.79023 8.09244 415 ft 14 kts 122°
2026-05-01 14:12 48.78940 8.09286 415 ft 15 kts 209°
2026-05-01 14:13 48.78843 8.09193 415 ft 18 kts 211°
2026-05-01 14:13 48.78771 8.09126 413 ft 19 kts 211°
2026-05-01 14:13 48.78607 8.08973 411 ft 22 kts 212°
2026-05-01 14:13 48.78469 8.08843 413 ft 25 kts 211°
2026-05-01 14:14 48.78347 8.08729 415 ft 9 kts 212°
2026-05-01 14:14 48.78284 8.08713 415 ft 10 kts 140°
2026-05-01 14:14 48.78242 8.08817 411 ft 13 kts 120°
2026-05-01 14:14 48.78199 8.08856 411 ft 4 kts 200°
2026-05-01 14:15 48.78170 8.08815 415 ft 9 kts 221°
2026-05-01 14:15 48.78104 8.08752 414 ft 13 kts 211°
2026-05-01 14:15 48.78018 8.08686 415 ft 14 kts 212°
2026-05-01 14:15 48.77966 8.08637 411 ft 7 kts 211°
2026-05-01 14:16 48.77932 8.08665 409 ft 2 kts 121°
2026-05-01 14:16 48.77918 8.08683 415 ft 2 kts 155°
2026-05-01 14:16 48.77917 8.08684 415 ft 0 kts 155°